Stephenville, TX

3:49 PM CST on February 06, 2016 (GMT -0600)
Clark Municipal

Weather History for KSEP - October, 2013

Change the Weather History Date:

Tuesday, October 29, 2013

  Actual Average Record
Temperature  
Mean Temperature 72 °F -  
Max Temperature 77 °F 72 °F 88 °F (1950)
Min Temperature 67 °F 49 °F 29 °F (1925)
Cooling Degree Days 7    
Growing Degree Days 22 (Base 50)    
Moisture  
Dew Point 66 °F    
Average Humidity 81    
Maximum Humidity 91    
Minimum Humidity 69    
Precipitation  
Precipitation 0.00 in - - ()
Sea Level Pressure  
Sea Level Pressure 30.05 in    
Wind  
Wind Speed 10 mph (SSE)    
Max Wind Speed 15 mph    
Max Gust Speed 21 mph    
Visibility 10 miles    
Events      
Averages and records for this station are not official NWS values.
T = Trace of Precipitation, MM = Missing Value Source: NWS Daily Summary

Daily Weather History Graph

Daily Weather History Graph

Search for Another Location

Airport or City:

Trip Planner

Search our weather history database for the weather conditions in past years. The results will help you decide how hot, cold, wet, or windy it might be!

Date:

Astronomy

Oct. 29, 2013 Rise Set
Actual Time 7:47 AM CDT 6:44 PM CDT
Civil Twilight 7:22 AM CDT 7:10 PM CDT
Nautical Twilight 6:53 AM CDT 7:38 PM CDT
Astronomical Twilight 6:24 AM CDT 8:07 PM CDT
Moon 2:55 AM CDT (10/29) 3:44 PM CDT (10/29)
Length of Visible Light 11h 47m
Length of Day
10h 57m
Waning Crescent, 25% of the Moon is Illuminated
Oct 29
Waning Crescent
Nov 3
New
Nov 9
First Quarter
Nov 17
Full
Nov 25
Last Quarter

Hourly Weather History & Observations

Time (CDT) Temp. Dew Point Humidity Pressure Visibility Wind Dir Wind Speed Gust Speed Precip Events Conditions
12:15 AM 70.2 °F 63.7 °F 80% 30.06 in 10.0 mi South 10.4 mph 18.4 mph N/A   Clear
12:35 AM 69.8 °F 63.5 °F 80% 30.07 in 10.0 mi South 11.5 mph 16.1 mph N/A   Scattered Clouds
12:55 AM 69.3 °F 63.5 °F 82% 30.06 in 10.0 mi South 12.7 mph 18.4 mph N/A   Scattered Clouds
1:15 AM 68.9 °F 63.0 °F 81% 30.06 in 10.0 mi South 10.4 mph 17.3 mph N/A   Clear
1:35 AM 68.5 °F 62.8 °F 82% 30.06 in 10.0 mi South 12.7 mph 17.3 mph N/A   Clear
1:55 AM 68.2 °F 62.6 °F 82% 30.06 in 10.0 mi SSE 10.4 mph 18.4 mph N/A   Clear
2:15 AM 68.0 °F 62.6 °F 83% 30.05 in 10.0 mi SSE 12.7 mph 18.4 mph N/A   Clear
2:35 AM 67.5 °F 62.6 °F 84% 30.06 in 10.0 mi SSE 11.5 mph 19.6 mph N/A   Clear
2:55 AM 67.5 °F 62.6 °F 84% 30.06 in 10.0 mi SSE 12.7 mph 16.1 mph N/A   Clear
3:15 AM 67.5 °F 62.6 °F 84% 30.05 in 10.0 mi SSE 11.5 mph 17.3 mph N/A   Scattered Clouds
3:35 AM 67.5 °F 62.6 °F 84% 30.05 in 10.0 mi SSE 11.5 mph 16.1 mph N/A   Scattered Clouds
3:55 AM 67.5 °F 62.8 °F 85% 30.06 in 10.0 mi SSE 8.1 mph - N/A   Mostly Cloudy
4:15 AM 67.5 °F 63.1 °F 86% 30.06 in 10.0 mi South 8.1 mph - N/A   Mostly Cloudy
4:35 AM 67.3 °F 63.1 °F 87% 30.06 in 10.0 mi SSE 8.1 mph - N/A   Mostly Cloudy
4:55 AM 67.3 °F 63.5 °F 88% 30.06 in 10.0 mi South 6.9 mph - N/A   Mostly Cloudy
5:15 AM 67.5 °F 63.5 °F 87% 30.06 in 10.0 mi SSE 8.1 mph - N/A   Overcast
5:35 AM 67.5 °F 63.7 °F 88% 30.07 in 10.0 mi South 6.9 mph - N/A   Overcast
6:15 AM 68.0 °F 63.9 °F 87% 30.06 in 10.0 mi SSE 10.4 mph - N/A   Overcast
6:35 AM 68.0 °F 64.0 °F 87% 30.06 in 10.0 mi SSE 10.4 mph - N/A   Overcast
7:15 AM 68.2 °F 64.4 °F 88% 30.07 in 10.0 mi South 9.2 mph - N/A   Overcast
7:35 AM 68.0 °F 64.4 °F 88% 30.07 in 7.0 mi South 8.1 mph - N/A   Overcast
8:15 AM 68.0 °F 64.8 °F 89% 30.08 in 4.0 mi South 8.1 mph - N/A   Overcast
8:35 AM 68.0 °F 65.3 °F 91% 30.07 in 4.0 mi SSE 10.4 mph - N/A   Overcast
8:55 AM 68.0 °F 65.3 °F 91% 30.07 in 5.0 mi South 9.2 mph - N/A   Overcast
9:15 AM 68.4 °F 65.7 °F 91% 30.07 in 7.0 mi SSE 13.8 mph 18.4 mph N/A   Overcast
9:35 AM 68.9 °F 66.2 °F 91% 30.09 in 10.0 mi South 12.7 mph 18.4 mph N/A   Overcast
9:55 AM 69.1 °F 66.2 °F 91% 30.09 in 10.0 mi South 9.2 mph 17.3 mph N/A   Overcast
10:15 AM 69.8 °F 66.6 °F 89% 30.09 in 7.0 mi South 9.2 mph - N/A   Overcast
10:35 AM 70.3 °F 66.9 °F 89% 30.09 in 10.0 mi South 11.5 mph - N/A   Overcast
10:55 AM 70.9 °F 67.1 °F 88% 30.08 in 10.0 mi South 11.5 mph 16.1 mph N/A   Overcast
11:15 AM 72.3 °F 67.3 °F 84% 30.08 in 10.0 mi South 10.4 mph - N/A   Overcast
11:35 AM 73.6 °F 67.3 °F 81% 30.08 in 10.0 mi South 15.0 mph 20.7 mph N/A   Overcast
11:55 AM 74.5 °F 67.3 °F 78% 30.08 in 10.0 mi South 8.1 mph - N/A   Overcast
12:15 PM 75.0 °F 67.3 °F 77% 30.08 in 10.0 mi South 9.2 mph 17.3 mph N/A   Overcast
12:35 PM 74.8 °F 67.5 °F 78% 30.07 in 10.0 mi South 8.1 mph - N/A   Overcast
12:55 PM 76.1 °F 68.2 °F 76% 30.06 in 10.0 mi SSE 5.8 mph - N/A   Overcast
1:15 PM 76.3 °F 66.6 °F 72% 30.06 in 10.0 mi South 10.4 mph 17.3 mph N/A   Overcast
1:35 PM 77.0 °F 67.1 °F 71% 30.04 in 10.0 mi South 12.7 mph 17.3 mph N/A   Mostly Cloudy
1:55 PM 77.7 °F 66.9 °F 69% 30.04 in 10.0 mi South 12.7 mph 16.1 mph N/A   Mostly Cloudy
2:15 PM 77.5 °F 67.1 °F 70% 30.03 in 10.0 mi South 12.7 mph 17.3 mph N/A   Overcast
2:35 PM 76.3 °F 68.0 °F 75% 30.02 in 10.0 mi SSE 8.1 mph - N/A   Overcast
2:55 PM 76.5 °F 67.5 °F 74% 30.02 in 10.0 mi SSE 9.2 mph - N/A   Overcast
3:15 PM 76.5 °F 66.4 °F 71% 30.02 in 10.0 mi South 11.5 mph 19.6 mph N/A   Overcast
3:35 PM 77.2 °F 66.7 °F 70% 30.01 in 10.0 mi South 10.4 mph 17.3 mph N/A   Overcast
3:55 PM 77.0 °F 67.1 °F 71% 30.01 in 10.0 mi South 11.5 mph 16.1 mph N/A   Mostly Cloudy
4:15 PM 76.8 °F 66.7 °F 71% 30.02 in 10.0 mi South 10.4 mph - N/A   Scattered Clouds
4:35 PM 76.3 °F 67.1 °F 73% 30.01 in 10.0 mi SSE 9.2 mph - N/A   Overcast
4:55 PM 76.1 °F 67.1 °F 74% 30.02 in 10.0 mi SSE 10.4 mph - N/A   Overcast
5:15 PM 75.9 °F 67.3 °F 74% 30.02 in 10.0 mi SSE 6.9 mph - N/A   Overcast
5:35 PM 75.6 °F 67.3 °F 75% 30.02 in 10.0 mi SSE 5.8 mph - N/A   Scattered Clouds
5:55 PM 75.2 °F 67.6 °F 77% 30.02 in 10.0 mi SE 6.9 mph - N/A   Scattered Clouds
6:15 PM 74.7 °F 67.8 °F 79% 30.01 in 10.0 mi ESE 5.8 mph - N/A   Scattered Clouds
6:35 PM 74.3 °F 68.0 °F 81% 30.02 in 10.0 mi SE 4.6 mph - N/A   Mostly Cloudy
6:55 PM 74.1 °F 68.0 °F 81% 30.02 in 10.0 mi SE 4.6 mph - N/A   Overcast
7:15 PM 73.6 °F 68.0 °F 83% 30.02 in 10.0 mi SE 9.2 mph - N/A   Mostly Cloudy
7:35 PM 73.4 °F 68.0 °F 83% 30.03 in 10.0 mi SE 8.1 mph - N/A   Mostly Cloudy
7:55 PM 72.9 °F 67.3 °F 83% 30.03 in 10.0 mi SE 8.1 mph - N/A   Mostly Cloudy
8:15 PM 72.7 °F 66.6 °F 81% 30.04 in 10.0 mi SSE 5.8 mph - N/A   Clear
8:35 PM 72.9 °F 65.8 °F 79% 30.04 in 10.0 mi SSE 8.1 mph - N/A   Clear
8:55 PM 73.4 °F 66.2 °F 78% 30.04 in 10.0 mi SSE 10.4 mph - N/A   Scattered Clouds
9:15 PM 73.0 °F 66.2 °F 79% 30.03 in 10.0 mi SSE 11.5 mph 16.1 mph N/A   Scattered Clouds
9:35 PM 73.0 °F 66.2 °F 79% 30.04 in 10.0 mi SSE 13.8 mph 18.4 mph N/A   Scattered Clouds
9:55 PM 73.0 °F 66.2 °F 79% 30.05 in 10.0 mi SSE 10.4 mph 18.4 mph N/A   Scattered Clouds
10:15 PM 72.7 °F 66.2 °F 80% 30.04 in 10.0 mi SSE 11.5 mph 18.4 mph N/A   Clear
10:35 PM 72.5 °F 66.2 °F 81% 30.04 in 10.0 mi SSE 9.2 mph 18.4 mph N/A   Clear
10:55 PM 72.5 °F 65.8 °F 80% 30.05 in 10.0 mi SSE 11.5 mph 17.3 mph N/A   Clear
11:15 PM 72.5 °F 65.7 °F 79% 30.04 in 10.0 mi SSE 11.5 mph 18.4 mph N/A   Clear
11:35 PM 72.5 °F 65.5 °F 79% 30.04 in 10.0 mi SSE 10.4 mph 18.4 mph N/A   Clear
11:55 PM 72.5 °F 65.3 °F 78% 30.05 in 10.0 mi South 15.0 mph 20.7 mph N/A   Clear